Tracking 19176 objects as of 25-May-2018
HD Live streaming from Space Station
objects crossing your sky now

CZ-2D DEB

Track CZ-2D DEB now!
10-day predictions


NORAD ID: 43147
Int'l Code: 2018-006B
Perigee: 497.9 km
Apogee: 515.6 km
Inclination: 97.2 °
Period: 94.6 minutes
Semi major axis: 6877 km
RCS: Unknown
Launch date: January 13, 2018
Source: People's Republic of China (PRC)
Launch site: Jiuquan Satellite Launch Center, China (JSC)

Note: This is SATELLITE DEBRIS
aabbcc
Your satellite tracking list
Your tracking list is empty




NASA's NSSDC Master Catalog

Two Line Element Set (TLE):
1 43147U 18006B   18144.85428563 +.00001664 +00000-0 +75534-4 0  9998
2 43147 097.2422 261.7778 0012913 012.3291 347.8259 15.22069614020005
Source of the keplerian elements: AFSPC